Voltar ao catálogo

DELTA 1 DEB

AtivoLEO
NORAD 3123·DEBRIS·🇺🇸 United States

Lançado Nov 10, 1967 de Vandenberg Space Force Base

Loading…

Próximas Passagens (próximas 24 horas)

TLE

AtualizadoSource: Space-Track

Época: Sep 14, 2026, 07:51 UTC

1 03123U 67114D   26257.32775973 -.00000037  00000-0  78012-4 0  9996
2 03123 102.4915  35.8270 0028451  96.7482 293.2511 12.48109058679883

Acompanhe DELTA 1 DEB em tempo real com AllMySat

Download on the App Store